[[{"header":{"parameterUnit":"m.s-1","parameterCategory":1,"la1":30.2992,"la2":30.254,"lo1":-89.0895,"lo2":-89.0443,"dy":0.0025,"dx":0.0025,"nx":19,"ny":19,"refTime":"2026-04-03T03:00:00:Z","depth":0,"parameterNumber":2,"parameterNumberName":"U-component_of_WINDS"},"data":[0,0,0,-3.1611,-3.1613,-3.1701,-3.1701,-3.1823,-3.1824,0,0,0,0,0,0,0,0,0,0,0,-3.1588,-3.1589,-3.1611,-3.1613,-3.1701,-3.1701,-3.1823,-3.1824,0,0,0,0,0,0,0,0,0,0,0,-3.1588,-3.1589,-3.159,-3.1613,-3.1701,-3.1701,-3.1823,-3.1753,0,0,0,0,0,0,0,0,0,0,-3.1666,-3.1648,-3.1589,-3.159,-3.1614,-3.1701,-3.1701,-3.175,-3.1758,-3.1787,0,-3.1811,0,-3.182,-3.1833,-3.1833,0,0,0,-3.1611,-3.1642,-3.1662,-3.159,-3.1615,-3.1701,-3.1661,-3.1754,-3.1763,-3.1797,-3.1813,-3.1817,-3.1822,-3.1834,-3.1834,-3.2005,-3.2006,0,0,-3.1606,-3.1606,-3.1656,-3.1668,-3.1653,-3.1658,-3.1663,-3.1759,-3.1778,-3.1814,-3.182,-3.1824,-3.1835,-3.1836,-3.2004,-3.2005,0,0,0,-3.1593,-3.1603,-3.1621,-3.1663,-3.1679,-3.166,-3.1667,-3.1773,-3.1779,-3.1821,-3.1825,-3.1835,-3.1837,-3.2003,-3.2004,-3.2048,0,0,0,-3.159,-3.1595,-3.1619,-3.162,-3.1677,-3.1727,-3.1679,-3.1773,-3.1783,-3.1825,-3.1835,-3.1838,-3.2002,-3.2004,-3.2045,-3.2068,0,0,0,-3.1581,-3.1594,-3.1608,-3.162,-3.1658,-3.1725,-3.1736,-3.1775,-3.1786,-3.1834,-3.1839,-3.2001,-3.2003,-3.2042,-3.2063,-3.2113,0,0,0,-3.1572,-3.1646,-3.1609,-3.1694,-3.1657,-3.1751,-3.1736,-3.1806,-3.1852,-3.1836,-3.2002,-3.2004,-3.2041,-3.206,-3.211,-3.2154,-3.2172,0,0,-3.1665,-3.1657,-3.1707,-3.1677,-3.1777,-3.1738,-3.1846,-3.1889,-3.1894,-3.1968,-3.1972,-3.2046,-3.2063,-3.2112,-3.2278,-3.2293,0,0,0,-3.1737,-3.1773,-3.1799,-3.1843,-3.1877,-3.1909,-3.1935,-3.1951,-3.2014,-3.1931,-3.2078,-3.2088,-3.2117,-3.2138,-3.215,-3.2175,-3.2014,-3.2014,-3.2014,-3.1868,-3.1871,-3.1954,-3.1968,-3.2011,-3.2038,-3.2074,-3.2101,-3.2091,-3.2126,-3.2147,-3.2247,-3.2272,-3.2281,-3.2307,-3.2172,-3.2172,-3.2172,-3.2172,-3.2005,-3.2056,-3.2042,-3.2118,-3.2121,-3.2186,-3.2217,-3.2208,-3.227,-3.2231,-3.2256,-3.2212,-3.2297,-3.232,-3.2175,-3.2175,-3.2174,-3.2174,-3.2174,-3.209,-3.2115,-3.2133,-3.2198,-3.2248,-3.2261,-3.2321,-3.2323,-3.2325,-3.235,-3.2373,-3.2373,-3.2372,-3.2361,-3.2362,-3.2362,-3.2362,-3.2363,-3.2363,-3.217,-3.219,-3.2239,-3.2283,-3.2312,-3.2351,-3.2382,-3.2411,-3.2445,-3.2441,-3.2442,-3.2429,-3.2305,-3.2273,-3.2368,-3.2367,-3.2367,-3.2366,-3.2366,-3.2305,-3.2275,-3.2351,-3.238,-3.2434,-3.2484,-3.2487,-3.2547,-3.2572,-3.2602,-3.2586,-3.2494,-3.2486,-3.2476,-3.2449,-3.2584,-3.2584,-3.2584,-3.2584,-3.2376,-3.2373,-3.2451,-3.2498,-3.2545,-3.2555,-3.2644,-3.267,-3.2692,-3.2709,-3.269,-3.2656,-3.2646,-3.2643,-3.263,-3.2605,-3.2777,-3.2777,-3.2777,-3.2459,-3.2461,-3.2534,-3.2554,-3.2597,-3.2634,-3.2718,-3.2774,-3.2794,-3.2785,-3.2721,-3.2713,-3.2658,-3.264,-3.2627,-3.2606,-3.2561,0,0]},{"header":{"parameterUnit":"m.s-1","parameterCategory":1,"la1":30.2992,"la2":30.254,"lo1":-89.0895,"lo2":-89.0443,"dy":0.0025,"dx":0.0025,"nx":19,"ny":19,"refTime":"2026-04-03T03:00:00:Z","depth":0,"parameterNumber":3,"parameterNumberName":"V-component_of_WINDS"},"data":[0,0,0,3.2374,3.2375,3.2426,3.2426,3.2493,3.2494,0,0,0,0,0,0,0,0,0,0,0,3.2362,3.2362,3.2374,3.2375,3.2426,3.2426,3.2493,3.2494,0,0,0,0,0,0,0,0,0,0,0,3.2362,3.2362,3.2363,3.2376,3.2426,3.2426,3.2493,3.2453,0,0,0,0,0,0,0,0,0,0,3.2404,3.2395,3.2362,3.2363,3.2376,3.2426,3.2426,3.2451,3.2456,3.2472,0,3.2487,0,3.2492,3.2498,3.2499,0,0,0,3.2373,3.2392,3.2403,3.2363,3.2376,3.2426,3.2402,3.2454,3.2459,3.2477,3.2488,3.2491,3.2493,3.2499,3.2499,3.2602,3.2602,0,0,3.237,3.2372,3.24,3.2407,3.24,3.2401,3.2404,3.2457,3.2468,3.2488,3.2492,3.2494,3.2499,3.25,3.2601,3.2602,0,0,0,3.2364,3.237,3.238,3.2404,3.2413,3.2402,3.2406,3.2466,3.2469,3.2493,3.2495,3.25,3.2501,3.26,3.2601,3.2634,0,0,0,3.2362,3.2366,3.2379,3.238,3.2412,3.244,3.2414,3.2465,3.2471,3.2494,3.25,3.2501,3.26,3.2601,3.2632,3.2649,0,0,0,3.2358,3.2366,3.2374,3.238,3.2402,3.2439,3.2445,3.2467,3.2473,3.2499,3.2501,3.2599,3.2601,3.263,3.2646,3.2678,0,0,0,3.2353,3.2401,3.2375,3.2429,3.2402,3.2459,3.2445,3.2487,3.2513,3.25,3.26,3.2601,3.2629,3.2644,3.2676,3.2706,3.2719,0,0,3.2414,3.2408,3.244,3.2418,3.2481,3.2451,3.2518,3.2539,3.2539,3.2581,3.2583,3.2632,3.2645,3.2677,3.2787,3.2797,0,0,0,3.246,3.2483,3.2499,3.2525,3.2544,3.2561,3.2572,3.258,3.2616,3.2561,3.2652,3.266,3.2678,3.2693,3.2702,3.2718,3.2608,3.2608,3.2608,3.2549,3.2548,3.2601,3.2606,3.2631,3.2644,3.2664,3.2677,3.2666,3.2688,3.27,3.2767,3.2784,3.2791,3.2808,3.2715,3.2715,3.2716,3.2716,3.264,3.2673,3.266,3.2707,3.2705,3.2744,3.2757,3.2749,3.2785,3.2757,3.2774,3.2745,3.2802,3.2817,3.2718,3.2718,3.2717,3.2717,3.2717,3.2699,3.2715,3.2725,3.2764,3.2793,3.2796,3.2832,3.2828,3.2825,3.2841,3.2855,3.2854,3.2854,3.2848,3.2848,3.2848,3.2848,3.2849,3.2849,3.2757,3.2768,3.2799,3.2824,3.2841,3.2863,3.2876,3.2892,3.2909,3.2904,3.2904,3.2892,3.2808,3.2787,3.2852,3.2852,3.2851,3.2851,3.2851,3.2852,3.283,3.2879,3.2896,3.2926,3.2956,3.2951,3.2985,3.2998,3.3016,3.3001,3.2938,3.2931,3.2925,3.2908,3.3,3.3,3.3,3.3,3.2903,3.29,3.295,3.2978,3.3005,3.3006,3.306,3.3071,3.3078,3.3086,3.3072,3.3049,3.3042,3.3039,3.303,3.3014,3.3131,3.3131,3.3132,3.2962,3.2961,3.3009,3.3018,3.3041,3.3061,3.3112,3.3144,3.3148,3.3137,3.3092,3.3087,3.3049,3.3037,3.3026,3.3012,3.2983,0,0]}]]